Regional Weather Roundup
Issued by NWS Grand Forks, ND

Home | Current Version | Previous Version | Graphics & Text | Print | Product List | Glossary On
Versions: 1 2 3 4 5 6 7 8 9 10 11 12 13 14 15 16 17 18 19 20 21 22 23 24 25 26 27 28 29 30 31 32 33 34 35 36 37 38 39 40 41 42 43 44 45 46 47 48 49 50
000
ASUS43 KFGF 012131
RWRFGF
PRAIRIE TO PINES  WEATHER ROUNDUP
NATIONAL WEATHER SERVICE EASTERN NORTH DAKOTA/GRAND FORKS ND
400 PM CDT MON SEP 01 2014

 **SATELLITE DATA USED TO AUGMENT SKY COVER AT AUTOMATED STATIONS**
 *****  WEATHER ACROSS EASTERN NORTH DAKOTA  *****

CITY           SKY/WX    TMP DP  RH WIND       PRES   REMARKS
GRAND FORKS    PTSUNNY   66  54  63 NW7       29.71S
GRAND FRKS AFB PTSUNNY   66  55  68 NW9       29.72F
GRAND FRKS NWS   N/A     64 N/A N/A N7          N/A
DEVILS LAKE    SUNNY     70  48  46 NW14      29.74S
FARGO          MOSUNNY   77  53  43 W14       29.71F
WAHPETON ARPT  PTCLDY    72  55  56 W8        29.74F
$$

 ***** WEATHER ACROSS CENTRAL AND WESTERN NORTH DAKOTA  *****

CITY           SKY/WX    TMP DP  RH WIND       PRES   REMARKS
BISMARCK       SUNNY     74  46  36 NW16G23   29.82S
MINOT          MOSUNNY   72  41  32 W14       29.79S
JAMESTOWN      MOSUNNY   72  51  47 W16G23    29.76S
MINOT AFB      MOSUNNY   73  45  35 N15       29.77F
GARRISON         N/A     68  45  43 W9        29.81S
WILLISTON      PTSUNNY   73  42  32 NW9       29.82F
DICKINSON      MOSUNNY   66  45  46 NW15      29.86R
HETTINGER      PTSUNNY   69  46  43 W16G22    29.88F
$$

 *****  OTHER AIRPORT OBSERVATIONS IN OUR AREA  *****

CITY           SKY/WX    TMP DP  RH WIND       PRES   REMARKS
WALHALLA         N/A     68  57  68 S6        29.70F
GRAFTON AIRPOR FAIR      68  54  60 N14G22    29.71R
VALLEY CITY AR FAIR      73  54  49 W15       29.74F
CANDO          FAIR      72  50  46 NW14G20   29.75S
CAVALIER APRT  FAIR      63  55  77 CALM      29.70F
GWINNER        CLEAR     77  55  47 W13       29.75F
ROLLA          LGT RAIN  59  46  63 W13G25    29.76S
 ***** THE ABOVE OBSERVATIONS ARE NON NWS ARE NOT QUALITY
       CONTROLLED AND MAY MIS-REPORT RAIN FOR SNOW...
$$

  *****  WEATHER ACROSS NORTHERN MINNESOTA  *****

CITY           SKY/WX    TMP DP  RH WIND       PRES   REMARKS
FLAG ISLAND    MOSUNNY   70  54  56 SW7       29.63S
WARROAD        MOSUNNY   72  55  56 W9        29.67R
ROSEAU         MOSUNNY   72  54  53 W9G16     29.67S
HALLOCK        LGT RAIN  63  55  77 W12       29.69F
THF RVR FALLS  PTSUNNY   70  50  49 W12       29.71S
BAUDETTE       MOSUNNY   72  52  49 NW10      29.66F
WASKISH        MOSUNNY   72  57  60 CALM      29.69S
CROOKSTON      PTSUNNY   63  57  82 SW8       29.72F
$$
  *****  WEATHER ACROSS CENTRAL AND WEST MINNESOTA  *****

CITY           SKY/WX    TMP DP  RH WIND       PRES   REMARKS
FOSSTON        MOSUNNY   70  55  60 SW12      29.73S
BEMIDJI        SUNNY     69  50  50 W6        29.72S
PARK RAPIDS    MOSUNNY   71  49  45 W13       29.74S
ELBOW LAKE     FAIR      73  57  57 W10       29.76S
WADENA         MOSUNNY   70  55  60 W3        29.75S
DETROIT LAKES  LGT RAIN  68  55  64 CALM      29.76R
MOORHEAD       SUNNY     75  54  46 W14       29.72F
FERGUS FALLS   MOSUNNY   70  54  56 S8        29.75S
MORRIS MN      SUNNY     75  55  50 SW6       29.75F
STAPLES        SUNNY     72  52  49 W8        29.75S
$$
  *****  WEATHER ELSEWHERE ACROSS MINNESOTA  *****

CITY           SKY/WX    TMP DP  RH WIND       PRES   REMARKS
DULUTH         MOSUNNY   72  51  47 W16       29.68S
INTRNTL FALLS  MOSUNNY   68  52  56 NW12G21   29.66R
ELY            MOSUNNY   64  55  72 W9        29.65F
CLOQUET        MOSUNNY   72  50  46 W13G18    29.69S
WHEATON        SUNNY     73  57  56 CALM      29.76F
BRAINERD       SUNNY     72  48  42 W15G21    29.73F
HIBBING        MOSUNNY   72  52  49 W8G17     29.68S
ALEXANDRIA     MOSUNNY   74  55  51 W12G18    29.78F
SAINT CLOUD    MOSUNNY   77  54  44 W18       29.75S
MINNEAPOLIS    MOSUNNY   77  55  46 W13       29.75R
$$

  *****  WEATHER ACROSS SOUTH DAKOTA  *****

CITY           SKY/WX    TMP DP  RH WIND       PRES   REMARKS
SIOUX FALLS    MOSUNNY   76  59  55 NW8       29.84F
BROOKINGS      NOT AVBL
WATERTOWN      SUNNY     75  53  46 W10       29.80F
HURON          PTSUNNY   76  51  41 SW10      29.79F
SISSETON         N/A     76  54  46 NW12      29.74F
ABERDEEN       SUNNY     74  54  49 NW10      29.77F
MITCHELL       MOSUNNY   78  55  44 W8        29.83F
PIERRE         PTSUNNY   74  48  39 NW13      29.80F
MOBRIDGE       MOSUNNY   75  54  47 N9        29.79F
RAPID CITY     LGT RAIN  59  51  75 N14       29.96F
$$

  *****  SOME WEATHER IN NEARBY STATES *****

CITY           SKY/WX    TMP DP  RH WIND       PRES   REMARKS
GLASGOW MT     SUNNY     71  43  36 W10       29.83F
GREAT FALLS MT CLOUDY    67  35  30 W13       29.92F
CHEYENNE WY    MOSUNNY   75  31  19 W21G32    30.03F
SCOTTSBLUFF NE SUNNY     80  39  23 W17G29    29.90F
OMAHA NE       PTSUNNY   79  60  52 W3        29.87F
DES MOINES IA  PTSUNNY   81  62  52 W15       29.83R
DAVENPORT IA   SUNNY     80  65  59 W17G23    29.80R
CHICAGO IL     PTSUNNY   81  63  54 W14       29.76S
EAU CLAIRE WI  MOSUNNY   76  56  49 W15G25    29.72R
LA CROSSE WI   SUNNY     78  64  61 VRB6      29.72S
$$

  *****  SOME NATIONAL WEATHER *****

CITY           SKY/WX    TMP DP  RH WIND       PRES   REMARKS
LA GUARDIA NY  PTSUNNY   86  72  62 S10       29.92F HX  92
RALEIGH NC     PTSUNNY   89  70  53 W6        30.04F HX  94
ATLANTA GA     PTSUNNY   84  72  67 S7        30.09S
NEW ORLEANS LA PTSUNNY   83  74  74 E15       30.01S THUNDER
OKLAHOMA CITY  MOSUNNY   97  67  37 S20G28    29.79F HX 101
ALBUQUERQUE NM MOSUNNY   90  37  15 SW12      30.06F
SALT LAKE CITY MOSUNNY   78  37  22 N7        30.07F
LOS ANGELES CA MOSUNNY   78  64  61 W9        29.82S
BOISE ID       SUNNY     73  36  25 W10       30.05F
SEATTLE WA     MOSUNNY   70  52  52 W6        30.08F
$$

*** WEATHER ACROSS MANITOBA...SASKATCHEWAN AND ONTARIO ***
                ***ONTARIO***

CITY           SKY/WX    TMP DP  RH WIND       PRES   REMARKS
GERALDTON      LGT RAIN  64  63  94 W13       29.46S
THUNDER BAY    LGT RAIN  70  59  68 W20G26    29.54R
SIOUX LOOKOUT  MOSUNNY   66  54  63 NW10G17   29.58S
TORONTO        PTSUNNY   82  68  61 S18G25    29.82F
BIG TROUT LK   CLOUDY    61  54  77 N7        29.44S
PICKLE LAKE    CLOUDY    61  55  82 W13G23    29.50R
DRYDEN         MOSUNNY   68  52  56 N8        29.61S
KENORA         PTSUNNY   70  52  52 NW7       29.63F
$$
                *** MANITOBA***

CITY           SKY/WX    TMP DP  RH WIND       PRES   REMARKS
BRANDON        PTSUNNY   72  45  37 NW23      29.71S
DAUPHIN        SUNNY     70  48  46 W20G29    29.65S
ISLAND LAKE    PTSUNNY   68  52  56 CALM      29.50F
PILOT MOUND      N/A     70  45  40 W12G17      N/A
THE PAS        MOSUNNY   64  48  55 W15G21    29.60F
THOMPSON       MOSUNNY   66  48  52 W12       29.52F
WINNIPEG       PTSUNNY   73  54  49 W15       29.65S
CHURCHILL      MOSUNNY   54  50  87 NE6       29.50S
GILLAM         PTSUNNY   66  55  68 NW8       29.48S
$$
                ***SASKATCHEWAN***

CITY           SKY/WX    TMP DP  RH WIND       PRES   REMARKS
ESTEVAN        PTSUNNY   68  45  42 NW14      29.79F
KINDERSLEY     PTSUNNY   70  39  32 W14       29.77F
LLOYDMINSTER   CLOUDY    63  41  45 NW15G21   29.73F
PRINCE ALBERT  MOSUNNY   64  45  48 NW8       29.69
REGINA         MOSUNNY   66  45  45 NW18G26   29.78F
YORKTON        SUNNY     66  45  45 W17G25    29.71F
N. BATTLEFORD  PTSUNNY   66  43  42 W12G17    29.74F
LA RONGE       PTSUNNY   66  48  52 W5        29.62F
SASKATOON      PTSUNNY   66  43  42 W10       29.75
SWIFT CURRENT  CLOUDY    66  36  32 NW9       29.80F
$$
NOTE: THESE ARE AUTOMATED STATIONS WITH LIMITED QUALITY CONTROL
      "FAIR" INDICATES FEW OR NO CLOUDS BELOW 12,000 FEET WITH NO
      SIGNIFICANT WEATHER AND/OR OBSTRUCTIONS TO VISIBILITY.
      SKY/WX - SKY CONDITION AND SIGNIFICANT WEATHER.
      TMP - AIR TEMPERATURE.    DP   - DEWPOINT TEMPERATURE.
      RH  - RELATIVE HUMIDITY.  PRES - PRESSURE.
      HX  - HEAT INDEX.         WCI  - WIND CHILL INDEX.
$


USA.gov is the U.S. government's official web portal to all federal, state and local government web resources and services.